Location: Caltech
(34.1382°N, 118.1253°W)
Time: 06:05:59
(UTC-07:00)

Iridium 14 - Visible Passes

Search period start: 23 July 2016 00:00
Search period end: 02 August 2016 00:00
Orbit: 776 x 779 km, 86.4° (Epoch: 22 July)

Date Brightness Start Highest point End Pass type
(mag) Time Alt. Az. Time Alt. Az. Time Alt. Az.
23 Jul 7.3 04:22:46 10° SSE 04:27:36 40° E 04:32:27 10° NNE visible
24 Jul 8.3 03:50:29 10° SE 03:54:19 21° E 03:58:08 10° NE visible
24 Jul 6.7 05:30:00 10° SSW 05:34:43 35° W 05:39:29 10° NNW visible
25 Jul 9.0 03:20:15 10° E 03:21:08 10° ENE 03:22:00 10° ENE visible
25 Jul 6.0 04:55:57 10° S 05:01:07 69° W 05:06:20 10° N visible
26 Jul 6.5 04:22:32 10° SSE 04:27:39 61° E 04:32:46 10° N visible
27 Jul 7.7 03:49:45 10° SE 03:54:17 31° E 03:58:49 10° NNE visible
27 Jul 7.2 05:30:48 10° SW 05:34:57 24° W 05:39:07 10° NNW visible
28 Jul 8.6 03:17:55 10° ESE 03:21:01 16° E 03:24:09 10° NE visible
28 Jul 6.4 04:56:41 12° SSW 05:01:16 46° W 05:06:17 10° NNW visible
29 Jul 6.0 04:23:46 18° S 04:27:43 89° W 04:32:57 10° N visible
30 Jul 6.9 03:50:50 19° SSE 03:54:17 46° E 03:59:16 10° NNE visible
30 Jul 7.6 05:32:03 10° WSW 05:35:13 16° WNW 05:38:23 10° NW visible
31 Jul 8.0 03:17:53 14° SE 03:20:58 24° E 03:25:04 10° NNE visible
31 Jul 6.9 04:58:23 17° SW 05:01:28 31° W 05:06:03 10° NNW visible
01 Aug 8.7 02:45:44 10° ESE 02:47:46 12° E 02:49:47 10° NE visible
01 Aug 6.0 04:25:23 30° SSW 04:27:50 60° W 04:33:00 10° N visible
